Year,Month,Day,Hour,Minute,Value (Times are PST for temperature in C)
2009,05,29,00,00,10.30
2009,05,29,00,01,10.30
2009,05,29,00,02,10.30
2009,05,29,00,03,10.30
2009,05,29,00,04,10.30
2009,05,29,00,05,10.30
2009,05,29,00,06,10.30
2009,05,29,00,07,10.30
2009,05,29,00,08,10.20
2009,05,29,00,09,10.20
2009,05,29,00,10,10.20
2009,05,29,00,11,10.20
2009,05,29,00,12,10.20
2009,05,29,00,13,10.20
2009,05,29,00,14,10.20
2009,05,29,00,15,10.20
2009,05,29,00,16,10.20
2009,05,29,00,17,10.20
2009,05,29,00,18,10.20
2009,05,29,00,19,10.20
2009,05,29,00,20,10.20
2009,05,29,00,21,10.20
2009,05,29,00,22,10.20
2009,05,29,00,23,10.20
2009,05,29,00,24,10.20
2009,05,29,00,25,10.10
2009,05,29,00,26,10.10
2009,05,29,00,27,10.10
2009,05,29,00,28,10.10
2009,05,29,00,29,10.10
2009,05,29,00,30,10.10
2009,05,29,00,31,10.10
2009,05,29,00,32,10.10
2009,05,29,00,33,10.10
2009,05,29,00,34,10.10
2009,05,29,00,35,10.00
2009,05,29,00,36,10.00
2009,05,29,00,37,10.00
2009,05,29,00,38,10.00
2009,05,29,00,39,10.00
2009,05,29,00,40,10.00
2009,05,29,00,41,9.90
2009,05,29,00,42,9.90
2009,05,29,00,43,9.90
2009,05,29,00,44,9.90
2009,05,29,00,45,9.90
2009,05,29,00,46,9.90
2009,05,29,00,47,9.90
2009,05,29,00,48,9.80
2009,05,29,00,49,9.80
2009,05,29,00,50,9.80
2009,05,29,00,51,9.80
2009,05,29,00,52,9.80
2009,05,29,00,53,9.80
2009,05,29,00,54,9.80
2009,05,29,00,55,9.80
2009,05,29,00,56,9.80
2009,05,29,00,57,9.80
2009,05,29,00,58,9.70
2009,05,29,00,59,9.70
2009,05,29,01,00,9.70
2009,05,29,01,01,9.70
2009,05,29,01,02,9.70
2009,05,29,01,03,9.70
2009,05,29,01,04,9.70
2009,05,29,01,05,9.70
2009,05,29,01,06,9.70
2009,05,29,01,07,9.70
2009,05,29,01,08,9.70
2009,05,29,01,09,9.70
2009,05,29,01,10,9.70
2009,05,29,01,11,9.70
2009,05,29,01,12,9.60
2009,05,29,01,13,9.60
2009,05,29,01,14,9.60
2009,05,29,01,15,9.60
2009,05,29,01,16,9.60
2009,05,29,01,17,9.60
2009,05,29,01,18,9.60
2009,05,29,01,19,9.60
2009,05,29,01,20,9.60
2009,05,29,01,21,9.60
2009,05,29,01,22,9.60
2009,05,29,01,23,9.60
2009,05,29,01,24,9.60
2009,05,29,01,25,9.60
2009,05,29,01,26,9.60
2009,05,29,01,27,9.60
2009,05,29,01,28,9.60
2009,05,29,01,29,9.60
2009,05,29,01,30,9.50
2009,05,29,01,31,9.50
2009,05,29,01,32,9.50
2009,05,29,01,33,9.50
2009,05,29,01,34,9.40
2009,05,29,01,35,9.40
2009,05,29,01,36,9.40
2009,05,29,01,37,9.40
2009,05,29,01,38,9.40
2009,05,29,01,39,9.40
2009,05,29,01,40,9.40
2009,05,29,01,41,9.30
2009,05,29,01,42,9.30
2009,05,29,01,43,9.30
2009,05,29,01,44,9.30
2009,05,29,01,45,9.30
2009,05,29,01,46,9.30
2009,05,29,01,47,9.30
2009,05,29,01,48,9.30
2009,05,29,01,49,9.30
2009,05,29,01,50,9.30
2009,05,29,01,51,9.30
2009,05,29,01,52,9.30
2009,05,29,01,53,9.30
2009,05,29,01,54,9.30
2009,05,29,01,55,9.30
2009,05,29,01,56,9.30
2009,05,29,01,57,9.30
2009,05,29,01,58,9.20
2009,05,29,01,59,9.20
2009,05,29,02,00,9.20
2009,05,29,02,01,9.20
2009,05,29,02,02,9.20
2009,05,29,02,03,9.20
2009,05,29,02,04,9.20
2009,05,29,02,05,9.20
2009,05,29,02,06,9.20
2009,05,29,02,07,9.20
2009,05,29,02,08,9.20
2009,05,29,02,09,9.20
2009,05,29,02,10,9.20
2009,05,29,02,11,9.20
2009,05,29,02,12,9.10
2009,05,29,02,13,9.10
2009,05,29,02,14,9.10
2009,05,29,02,15,9.10
2009,05,29,02,16,9.10
2009,05,29,02,17,9.10
2009,05,29,02,18,9.00
2009,05,29,02,19,9.00
2009,05,29,02,20,9.00
2009,05,29,02,21,9.00
2009,05,29,02,22,8.90
2009,05,29,02,23,8.90
2009,05,29,02,24,8.90
2009,05,29,02,25,8.90
2009,05,29,02,26,8.90
2009,05,29,02,27,8.90
2009,05,29,02,28,8.90
2009,05,29,02,29,8.90
2009,05,29,02,30,8.90
2009,05,29,02,31,8.90
2009,05,29,02,32,8.90
2009,05,29,02,33,8.90
2009,05,29,02,34,8.80
2009,05,29,02,35,8.80
2009,05,29,02,36,8.80
2009,05,29,02,37,8.80
2009,05,29,02,38,8.80
2009,05,29,02,39,8.80
2009,05,29,02,40,8.80
2009,05,29,02,41,8.80
2009,05,29,02,42,8.80
2009,05,29,02,43,8.80
2009,05,29,02,44,8.80
2009,05,29,02,45,8.80
2009,05,29,02,46,8.80
2009,05,29,02,47,8.70
2009,05,29,02,48,8.70
2009,05,29,02,49,8.70
2009,05,29,02,50,8.70
2009,05,29,02,51,8.70
2009,05,29,02,52,8.70
2009,05,29,02,53,8.70
2009,05,29,02,54,8.70
2009,05,29,02,55,8.70
2009,05,29,02,56,8.60
2009,05,29,02,57,8.60
2009,05,29,02,58,8.60
2009,05,29,02,59,8.60
2009,05,29,03,00,8.60
2009,05,29,03,01,8.60
2009,05,29,03,02,8.60
2009,05,29,03,03,8.60
2009,05,29,03,04,8.60
2009,05,29,03,05,8.60
2009,05,29,03,06,8.60
2009,05,29,03,07,8.60
2009,05,29,03,08,8.60
2009,05,29,03,09,8.60
2009,05,29,03,10,8.60
2009,05,29,03,11,8.60
2009,05,29,03,12,8.60
2009,05,29,03,13,8.60
2009,05,29,03,14,8.60
2009,05,29,03,15,8.60
2009,05,29,03,16,8.60
2009,05,29,03,17,8.60
2009,05,29,03,18,8.60
2009,05,29,03,19,8.60
2009,05,29,03,20,8.60
2009,05,29,03,21,8.60
2009,05,29,03,22,8.60
2009,05,29,03,23,8.60
2009,05,29,03,24,8.60
2009,05,29,03,25,8.60
2009,05,29,03,26,8.60
2009,05,29,03,27,8.60
2009,05,29,03,28,8.60
2009,05,29,03,29,8.60
2009,05,29,03,30,8.60
2009,05,29,03,31,8.60
2009,05,29,03,32,8.60
2009,05,29,03,33,8.60
2009,05,29,03,34,8.60
2009,05,29,03,35,8.60
2009,05,29,03,36,8.60
2009,05,29,03,37,8.60
2009,05,29,03,38,8.60
2009,05,29,03,39,8.60
2009,05,29,03,40,8.50
2009,05,29,03,41,8.50
2009,05,29,03,42,8.50
2009,05,29,03,43,8.50
2009,05,29,03,44,8.50
2009,05,29,03,45,8.40
2009,05,29,03,46,8.40
2009,05,29,03,47,8.40
2009,05,29,03,48,8.40
2009,05,29,03,49,8.40
2009,05,29,03,50,8.40
2009,05,29,03,51,8.40
2009,05,29,03,52,8.40
2009,05,29,03,53,8.40
2009,05,29,03,54,8.40
2009,05,29,03,55,8.40
2009,05,29,03,56,8.40
2009,05,29,03,57,8.40
2009,05,29,03,58,8.40
2009,05,29,03,59,8.40
2009,05,29,04,00,8.30
2009,05,29,04,01,8.30
2009,05,29,04,02,8.30
2009,05,29,04,03,8.30
2009,05,29,04,04,8.30
2009,05,29,04,05,8.30
2009,05,29,04,06,8.30
2009,05,29,04,18,8.20
2009,05,29,04,20,8.20
2009,05,29,04,21,8.20
2009,05,29,04,22,8.20
2009,05,29,04,23,8.10
2009,05,29,04,24,8.10
2009,05,29,04,25,8.10
2009,05,29,04,26,8.10
2009,05,29,04,27,8.10
2009,05,29,04,28,8.10
2009,05,29,04,29,8.00
2009,05,29,04,30,8.00
2009,05,29,04,31,8.00
2009,05,29,04,32,8.00
2009,05,29,04,33,8.00
2009,05,29,04,34,8.00
2009,05,29,04,35,8.00
2009,05,29,04,36,8.00
2009,05,29,04,37,8.00
2009,05,29,04,38,8.00
2009,05,29,04,39,8.00
2009,05,29,04,40,8.00
2009,05,29,04,41,8.00
2009,05,29,04,42,8.00
2009,05,29,04,43,8.00
2009,05,29,04,44,8.00
2009,05,29,04,45,8.00
2009,05,29,04,46,8.00
2009,05,29,04,47,7.90
2009,05,29,04,48,7.90
2009,05,29,04,49,7.90
2009,05,29,04,50,7.90
2009,05,29,04,51,7.90
2009,05,29,04,52,7.90
2009,05,29,04,53,7.90
2009,05,29,04,54,7.90
2009,05,29,04,55,7.90
2009,05,29,04,56,7.90
2009,05,29,04,57,7.90
2009,05,29,04,58,7.90
2009,05,29,04,59,7.90
2009,05,29,05,00,7.90
2009,05,29,05,01,7.90
2009,05,29,05,02,7.90
2009,05,29,05,03,7.90
2009,05,29,05,04,7.90
2009,05,29,05,05,7.90
2009,05,29,05,06,8.00
2009,05,29,05,07,8.00
2009,05,29,05,08,8.00
2009,05,29,05,09,8.00
2009,05,29,05,10,7.90
2009,05,29,05,11,7.90
2009,05,29,05,12,7.90
2009,05,29,05,13,7.90
2009,05,29,05,14,7.90
2009,05,29,05,15,7.90
2009,05,29,05,16,7.90
2009,05,29,05,17,7.90
2009,05,29,05,18,8.00
2009,05,29,05,19,7.90
2009,05,29,05,20,8.00
2009,05,29,05,21,8.00
2009,05,29,05,22,8.00
2009,05,29,05,23,8.00
2009,05,29,05,24,8.00
2009,05,29,05,25,8.00
2009,05,29,05,26,8.00
2009,05,29,05,27,8.00
2009,05,29,05,28,8.00
2009,05,29,05,29,8.00
2009,05,29,05,30,8.00
2009,05,29,05,31,8.00
2009,05,29,05,32,8.00
2009,05,29,05,33,8.00
2009,05,29,05,34,8.00
2009,05,29,05,35,8.00
2009,05,29,05,36,8.00
2009,05,29,05,37,8.00
2009,05,29,05,38,8.00
2009,05,29,05,39,7.90
2009,05,29,05,40,7.90
2009,05,29,05,41,7.90
2009,05,29,05,42,7.90
2009,05,29,05,43,7.90
2009,05,29,05,44,7.90
2009,05,29,05,45,7.90
2009,05,29,05,46,7.90
2009,05,29,05,47,7.90
2009,05,29,05,48,7.90
2009,05,29,05,49,7.90
2009,05,29,05,50,7.90
2009,05,29,05,51,7.90
2009,05,29,05,52,8.00
2009,05,29,05,53,8.00
2009,05,29,05,54,8.00
2009,05,29,05,55,8.00
2009,05,29,05,56,8.00
2009,05,29,05,57,8.00
2009,05,29,05,58,8.00
2009,05,29,05,59,8.00
2009,05,29,06,00,8.00
2009,05,29,06,01,8.00
2009,05,29,06,02,8.00
2009,05,29,06,03,8.00
2009,05,29,06,04,8.00
2009,05,29,06,05,8.00
2009,05,29,06,06,8.00
2009,05,29,06,07,8.10
2009,05,29,06,08,8.10
2009,05,29,06,09,8.10
2009,05,29,06,10,8.10
2009,05,29,06,11,8.10
2009,05,29,06,12,8.10
2009,05,29,06,13,8.10
2009,05,29,06,14,8.10
2009,05,29,06,15,8.20
2009,05,29,06,16,8.20
2009,05,29,06,17,8.20
2009,05,29,06,18,8.20
2009,05,29,06,19,8.20
2009,05,29,06,20,8.20
2009,05,29,06,21,8.20
2009,05,29,06,22,8.20
2009,05,29,06,23,8.20
2009,05,29,06,24,8.20
2009,05,29,06,25,8.30
2009,05,29,06,26,8.30
2009,05,29,06,27,8.30
2009,05,29,06,28,8.30
2009,05,29,06,29,8.30
2009,05,29,06,30,8.30
2009,05,29,06,31,8.40
2009,05,29,06,32,8.40
2009,05,29,06,33,8.40
2009,05,29,06,34,8.40
2009,05,29,06,35,8.40
2009,05,29,06,36,8.40
2009,05,29,06,37,8.40
2009,05,29,06,38,8.40
2009,05,29,06,39,8.40
2009,05,29,06,40,8.50
2009,05,29,06,41,8.50
2009,05,29,06,42,8.50
2009,05,29,06,43,8.60
2009,05,29,06,44,8.60
2009,05,29,06,45,8.60
2009,05,29,06,46,8.70
2009,05,29,06,47,8.70
2009,05,29,06,48,8.70
2009,05,29,06,49,8.80
2009,05,29,06,50,8.80
2009,05,29,06,51,8.80
2009,05,29,06,52,8.80
2009,05,29,06,53,8.90
2009,05,29,06,54,8.90
2009,05,29,06,55,8.90
2009,05,29,06,56,9.00
2009,05,29,06,57,9.00
2009,05,29,06,58,9.10
2009,05,29,06,59,9.10
2009,05,29,07,00,9.20
2009,05,29,07,01,9.20
2009,05,29,07,02,9.20
2009,05,29,07,03,9.30
2009,05,29,07,04,9.30
2009,05,29,07,05,9.40
2009,05,29,07,06,9.40
2009,05,29,07,07,9.50
2009,05,29,07,08,9.60
2009,05,29,07,09,9.60
2009,05,29,07,10,9.60
2009,05,29,07,11,9.70
2009,05,29,07,12,9.80
2009,05,29,07,13,9.80
2009,05,29,07,14,9.90
2009,05,29,07,15,10.00
2009,05,29,07,16,10.00
2009,05,29,07,17,10.10
2009,05,29,07,18,10.20
2009,05,29,07,19,10.30
2009,05,29,07,20,10.40
2009,05,29,07,21,10.50
2009,05,29,07,22,10.70
2009,05,29,07,23,10.80
2009,05,29,07,24,10.90
2009,05,29,07,25,11.00
2009,05,29,07,26,11.20
2009,05,29,07,27,11.30
2009,05,29,07,28,11.50
2009,05,29,07,29,11.60
2009,05,29,07,30,11.80
2009,05,29,07,31,12.00
2009,05,29,07,32,12.10
2009,05,29,07,33,12.30
2009,05,29,07,34,12.50
2009,05,29,07,35,12.60
2009,05,29,07,36,12.70
2009,05,29,07,37,12.90
2009,05,29,07,38,13.00
2009,05,29,07,39,13.10
2009,05,29,07,40,13.30
2009,05,29,07,41,13.50
2009,05,29,07,42,13.70
2009,05,29,07,43,13.80
2009,05,29,07,44,14.00
2009,05,29,07,45,14.10
2009,05,29,07,46,14.30
2009,05,29,07,47,14.50
2009,05,29,07,48,14.60
2009,05,29,07,49,14.80
2009,05,29,07,50,15.00
2009,05,29,07,51,15.00
2009,05,29,07,52,15.10
2009,05,29,07,53,15.40
2009,05,29,07,54,15.50
2009,05,29,07,55,15.70
2009,05,29,07,56,15.90
2009,05,29,07,57,16.00
2009,05,29,07,58,16.20
2009,05,29,07,59,16.30
2009,05,29,08,00,16.50
2009,05,29,08,01,16.70
2009,05,29,08,02,16.80
2009,05,29,08,03,16.90
2009,05,29,08,04,17.10
2009,05,29,08,05,17.30
2009,05,29,08,06,17.40
2009,05,29,08,07,17.60
2009,05,29,08,08,17.70
2009,05,29,08,09,17.90
2009,05,29,08,10,18.00
2009,05,29,08,11,18.20
2009,05,29,08,12,18.30
2009,05,29,08,13,18.40
2009,05,29,08,14,18.50
2009,05,29,08,15,18.60
2009,05,29,08,16,18.70
2009,05,29,08,17,18.80
2009,05,29,08,18,18.90
2009,05,29,08,19,19.00
2009,05,29,08,20,19.10
2009,05,29,08,21,19.20
2009,05,29,08,22,19.30
2009,05,29,08,23,19.40
2009,05,29,08,24,19.50
2009,05,29,08,25,19.60
2009,05,29,08,26,19.70
2009,05,29,08,27,19.70
2009,05,29,08,28,19.80
2009,05,29,08,29,19.90
2009,05,29,08,30,19.90
2009,05,29,08,31,20.00
2009,05,29,08,32,19.90
2009,05,29,08,33,19.90
2009,05,29,08,34,19.80
2009,05,29,08,35,19.70
2009,05,29,08,36,19.70
2009,05,29,08,37,19.60
2009,05,29,08,38,19.40
2009,05,29,08,39,19.30
2009,05,29,08,40,19.30
2009,05,29,08,41,19.30
2009,05,29,08,42,19.30
2009,05,29,08,43,19.40
2009,05,29,08,44,19.40
2009,05,29,08,45,19.40
2009,05,29,08,46,19.40
2009,05,29,08,47,19.40
2009,05,29,08,48,19.40
2009,05,29,08,49,19.30
2009,05,29,08,50,19.30
2009,05,29,08,51,19.30
2009,05,29,08,52,19.40
2009,05,29,08,53,19.40
2009,05,29,08,54,19.50
2009,05,29,08,55,19.60
2009,05,29,08,56,19.70
2009,05,29,08,57,19.80
2009,05,29,08,58,19.90
2009,05,29,08,59,19.90
2009,05,29,09,00,19.90
2009,05,29,09,01,19.90
2009,05,29,09,02,19.90
2009,05,29,09,03,19.90
2009,05,29,09,04,20.00
2009,05,29,09,05,20.00
2009,05,29,09,06,20.10
2009,05,29,09,07,20.10
2009,05,29,09,08,20.10
2009,05,29,09,09,20.10
2009,05,29,09,10,20.10
2009,05,29,09,11,20.10
2009,05,29,09,12,20.10
2009,05,29,09,13,20.20
2009,05,29,09,14,20.20
2009,05,29,09,15,20.30
2009,05,29,09,16,20.30
2009,05,29,09,17,20.40
2009,05,29,09,18,20.40
2009,05,29,09,19,20.50
2009,05,29,09,20,20.60
2009,05,29,09,21,20.70
2009,05,29,09,22,20.80
2009,05,29,09,23,20.80
2009,05,29,09,24,20.90
2009,05,29,09,25,20.90
2009,05,29,09,26,21.00
2009,05,29,09,27,21.00
2009,05,29,09,28,21.10
2009,05,29,09,29,21.20
2009,05,29,09,30,21.30
2009,05,29,09,31,21.30
2009,05,29,09,32,21.30
2009,05,29,09,33,21.20
2009,05,29,09,34,21.20
2009,05,29,09,35,21.20
2009,05,29,09,36,21.20
2009,05,29,09,37,21.30
2009,05,29,09,38,21.30
2009,05,29,09,39,21.40
2009,05,29,09,40,21.40
2009,05,29,09,41,21.50
2009,05,29,09,42,21.50
2009,05,29,09,43,21.50
2009,05,29,09,44,21.60
2009,05,29,09,45,21.50
2009,05,29,09,46,21.30
2009,05,29,09,47,21.30
2009,05,29,09,48,21.30
2009,05,29,09,49,21.40
2009,05,29,09,50,21.50
2009,05,29,09,51,21.50
2009,05,29,09,52,21.60
2009,05,29,09,53,21.70
2009,05,29,09,54,21.80
2009,05,29,09,55,21.80
2009,05,29,09,56,21.80
2009,05,29,09,57,21.90
2009,05,29,09,58,21.90
2009,05,29,09,59,21.90
2009,05,29,10,00,22.00
2009,05,29,10,01,22.10
2009,05,29,10,02,22.10
2009,05,29,10,03,22.10
2009,05,29,10,04,22.00
2009,05,29,10,05,22.00
2009,05,29,10,06,22.10
2009,05,29,10,07,22.10
2009,05,29,10,08,22.10
2009,05,29,10,09,22.10
2009,05,29,10,10,22.10
2009,05,29,10,11,22.20
2009,05,29,10,12,22.10
2009,05,29,10,13,22.10
2009,05,29,10,14,22.20
2009,05,29,10,15,22.30
2009,05,29,10,16,22.30
2009,05,29,10,17,22.50
2009,05,29,10,18,22.60
2009,05,29,10,19,22.70
2009,05,29,10,20,22.70
2009,05,29,10,21,22.80
2009,05,29,10,22,22.80
2009,05,29,10,23,22.80
2009,05,29,10,24,22.90
2009,05,29,10,25,22.90
2009,05,29,10,26,23.00
2009,05,29,10,27,23.00
2009,05,29,10,28,22.90
2009,05,29,10,29,22.90
2009,05,29,10,30,22.80
2009,05,29,10,31,22.80
2009,05,29,10,32,22.70
2009,05,29,10,33,22.70
2009,05,29,10,34,22.70
2009,05,29,10,35,22.70
2009,05,29,10,36,22.70
2009,05,29,10,37,22.70
2009,05,29,10,38,22.70
2009,05,29,10,39,22.70
2009,05,29,10,40,22.80
2009,05,29,10,41,22.80
2009,05,29,10,42,22.90
2009,05,29,10,43,22.90
2009,05,29,10,44,22.90
2009,05,29,10,45,23.00
2009,05,29,10,46,23.10
2009,05,29,10,47,23.00
2009,05,29,10,48,22.90
2009,05,29,10,49,22.80
2009,05,29,10,50,22.80
2009,05,29,10,51,22.90
2009,05,29,10,52,22.90
2009,05,29,10,53,22.90
2009,05,29,10,54,23.00
2009,05,29,10,55,23.00
2009,05,29,10,56,23.00
2009,05,29,10,57,22.90
2009,05,29,10,58,22.90
2009,05,29,10,59,23.00
2009,05,29,11,00,23.00
2009,05,29,11,01,23.10
2009,05,29,11,02,23.00
2009,05,29,11,03,23.00
2009,05,29,11,04,23.00
2009,05,29,11,05,22.90
2009,05,29,11,06,23.00
2009,05,29,11,07,23.10
2009,05,29,11,08,23.20
2009,05,29,11,09,23.30
2009,05,29,11,10,23.30
2009,05,29,11,11,23.30
2009,05,29,11,12,23.30
2009,05,29,11,13,23.30
2009,05,29,11,14,23.30
2009,05,29,11,15,23.30
2009,05,29,11,16,23.30
2009,05,29,11,17,23.30
2009,05,29,11,18,23.20
2009,05,29,11,19,23.30
2009,05,29,11,20,23.30
2009,05,29,11,21,23.30
2009,05,29,11,22,23.30
2009,05,29,11,23,23.30
2009,05,29,11,24,23.30
2009,05,29,11,25,23.30
2009,05,29,11,26,23.30
2009,05,29,11,27,23.30
2009,05,29,11,28,23.40
2009,05,29,11,29,23.50
2009,05,29,11,30,23.50
2009,05,29,11,31,23.50
2009,05,29,11,32,23.60
2009,05,29,11,33,23.60
2009,05,29,11,34,23.60
2009,05,29,11,35,23.70
2009,05,29,11,36,23.70
2009,05,29,11,37,23.80
2009,05,29,11,38,23.70
2009,05,29,11,39,23.60
2009,05,29,11,40,23.60
2009,05,29,11,41,23.60
2009,05,29,11,42,23.50
2009,05,29,11,43,23.50
2009,05,29,11,44,23.50
2009,05,29,11,45,23.60
2009,05,29,11,46,23.60
2009,05,29,11,47,23.60
2009,05,29,11,48,23.60
2009,05,29,11,49,23.60
2009,05,29,11,50,23.60
2009,05,29,11,51,23.60
2009,05,29,11,52,23.60
2009,05,29,11,53,23.70
2009,05,29,11,54,23.80
2009,05,29,11,55,23.80
2009,05,29,11,56,23.80
2009,05,29,11,57,23.90
2009,05,29,11,58,23.90
2009,05,29,11,59,23.90
2009,05,29,12,00,23.90
2009,05,29,12,01,23.90
2009,05,29,12,02,23.90
2009,05,29,12,03,23.90
2009,05,29,12,04,23.90
2009,05,29,12,05,23.80
2009,05,29,12,06,23.70
2009,05,29,12,07,23.70
2009,05,29,12,08,23.70
2009,05,29,12,09,23.70
2009,05,29,12,10,23.70
2009,05,29,12,11,23.70
2009,05,29,12,12,23.80
2009,05,29,12,13,23.80
2009,05,29,12,14,23.70
2009,05,29,12,15,23.60
2009,05,29,12,16,23.50
2009,05,29,12,17,23.60
2009,05,29,12,18,23.60
2009,05,29,12,19,23.60
2009,05,29,12,20,23.80
2009,05,29,12,21,23.90
2009,05,29,12,22,24.00
2009,05,29,12,23,24.10
2009,05,29,12,24,24.30
2009,05,29,12,25,24.40
2009,05,29,12,26,24.40
2009,05,29,12,27,24.40
2009,05,29,12,28,24.30
2009,05,29,12,29,24.30
2009,05,29,12,30,24.30
2009,05,29,12,31,24.30
2009,05,29,12,32,24.30
2009,05,29,12,33,24.40
2009,05,29,12,34,24.50
2009,05,29,12,35,24.60
2009,05,29,12,36,24.60
2009,05,29,12,37,24.60
2009,05,29,12,38,24.60
2009,05,29,12,39,24.40
2009,05,29,12,40,24.20
2009,05,29,12,41,24.10
2009,05,29,12,42,24.00
2009,05,29,12,43,24.10
2009,05,29,12,44,24.20
2009,05,29,12,45,24.20
2009,05,29,12,46,24.30
2009,05,29,12,47,24.30
2009,05,29,12,48,24.30
2009,05,29,12,49,24.40
2009,05,29,12,50,24.60
2009,05,29,12,51,24.70
2009,05,29,12,52,24.80
2009,05,29,12,53,24.90
2009,05,29,12,54,24.80
2009,05,29,12,55,24.80
2009,05,29,12,56,24.70
2009,05,29,12,57,24.60
2009,05,29,12,58,24.60
2009,05,29,12,59,24.60
2009,05,29,13,00,24.70
2009,05,29,13,01,24.80
2009,05,29,13,02,24.90
2009,05,29,13,03,25.00
2009,05,29,13,04,25.00
2009,05,29,13,05,25.20
2009,05,29,13,06,25.30
2009,05,29,13,07,25.30
2009,05,29,13,08,25.20
2009,05,29,13,09,25.10
2009,05,29,13,10,25.10
2009,05,29,13,11,25.10
2009,05,29,13,12,25.10
2009,05,29,13,13,25.20
2009,05,29,13,14,25.30
2009,05,29,13,15,25.30
2009,05,29,13,16,25.40
2009,05,29,13,17,25.50
2009,05,29,13,18,25.60
2009,05,29,13,19,25.60
2009,05,29,13,20,25.60
2009,05,29,13,21,25.50
2009,05,29,13,22,25.40
2009,05,29,13,23,25.20
2009,05,29,13,24,25.10
2009,05,29,13,25,25.00
2009,05,29,13,26,24.90
2009,05,29,13,27,24.80
2009,05,29,13,28,24.60
2009,05,29,13,29,24.50
2009,05,29,13,30,24.50
2009,05,29,13,31,24.50
2009,05,29,13,32,24.60
2009,05,29,13,33,24.60
2009,05,29,13,34,24.60
2009,05,29,13,35,24.60
2009,05,29,13,36,24.50
2009,05,29,13,37,24.50
2009,05,29,13,38,24.50
2009,05,29,13,39,24.40
2009,05,29,13,40,24.40
2009,05,29,13,41,24.30
2009,05,29,13,42,24.30
2009,05,29,13,43,24.30
2009,05,29,13,44,24.30
2009,05,29,13,45,24.40
2009,05,29,13,46,24.60
2009,05,29,13,47,24.70
2009,05,29,13,48,24.70
2009,05,29,13,49,24.70
2009,05,29,13,50,24.60
2009,05,29,13,51,24.60
2009,05,29,13,52,24.70
2009,05,29,13,53,24.80
2009,05,29,13,54,24.90
2009,05,29,13,55,24.90
2009,05,29,13,56,24.90
2009,05,29,13,57,25.00
2009,05,29,13,58,25.10
2009,05,29,13,59,25.10
2009,05,29,14,00,25.20
2009,05,29,14,01,25.20
2009,05,29,14,02,25.30
2009,05,29,14,03,25.50
2009,05,29,14,04,25.50
2009,05,29,14,05,25.40
2009,05,29,14,06,25.40
2009,05,29,14,07,25.40
2009,05,29,14,08,25.50
2009,05,29,14,09,25.60
2009,05,29,14,10,25.70
2009,05,29,14,11,25.90
2009,05,29,14,12,26.00
2009,05,29,14,13,26.10
2009,05,29,14,14,26.10
2009,05,29,14,15,26.10
2009,05,29,14,16,26.10
2009,05,29,14,17,26.20
2009,05,29,14,18,26.20
2009,05,29,14,19,26.30
2009,05,29,14,20,26.40
2009,05,29,14,21,26.50
2009,05,29,14,22,26.60
2009,05,29,14,23,26.80
2009,05,29,14,24,26.80
2009,05,29,14,25,26.90
2009,05,29,14,26,26.70
2009,05,29,14,27,26.50
2009,05,29,14,28,26.50
2009,05,29,14,29,26.50
2009,05,29,14,30,26.60
2009,05,29,14,31,26.60
2009,05,29,14,32,26.70
2009,05,29,14,33,26.70
2009,05,29,14,34,26.80
2009,05,29,14,35,26.90
2009,05,29,14,36,27.00
2009,05,29,14,37,26.90
2009,05,29,14,38,26.80
2009,05,29,14,39,26.80
2009,05,29,14,40,26.80
2009,05,29,14,41,26.70
2009,05,29,14,42,26.70
2009,05,29,14,43,26.80
2009,05,29,14,44,26.80
2009,05,29,14,45,26.80
2009,05,29,14,46,27.00
2009,05,29,14,47,27.10
2009,05,29,14,48,27.20
2009,05,29,14,49,27.30
2009,05,29,14,50,27.50
2009,05,29,14,51,27.60
2009,05,29,14,52,27.70
2009,05,29,14,53,27.90
2009,05,29,14,54,27.90
2009,05,29,14,55,28.00
2009,05,29,14,56,27.90
2009,05,29,14,57,27.80
2009,05,29,14,58,27.80
2009,05,29,14,59,27.70
2009,05,29,15,00,27.50
2009,05,29,15,01,27.40
2009,05,29,15,02,27.30
2009,05,29,15,03,27.30
2009,05,29,15,04,27.40
2009,05,29,15,05,27.40
2009,05,29,15,06,27.30
2009,05,29,15,07,27.30
2009,05,29,15,08,27.10
2009,05,29,15,09,27.10
2009,05,29,15,10,27.20
2009,05,29,15,11,27.20
2009,05,29,15,12,27.30
2009,05,29,15,13,27.40
2009,05,29,15,14,27.50
2009,05,29,15,15,27.60
2009,05,29,15,16,27.60
2009,05,29,15,17,27.70
2009,05,29,15,18,27.80
2009,05,29,15,19,27.80
2009,05,29,15,20,27.80
2009,05,29,15,21,27.70
2009,05,29,15,22,27.70
2009,05,29,15,23,27.70
2009,05,29,15,24,27.70
2009,05,29,15,25,27.80
2009,05,29,15,26,27.90
2009,05,29,15,27,28.00
2009,05,29,15,28,28.10
2009,05,29,15,29,28.10
2009,05,29,15,30,28.20
2009,05,29,15,31,28.40
2009,05,29,15,32,28.40
2009,05,29,15,33,28.50
2009,05,29,15,34,28.50
2009,05,29,15,35,28.50
2009,05,29,15,36,28.50
2009,05,29,15,37,28.40
2009,05,29,15,38,28.40
2009,05,29,15,39,28.40
2009,05,29,15,40,28.40
2009,05,29,15,41,28.40
2009,05,29,15,42,28.40
2009,05,29,15,43,28.30
2009,05,29,15,44,28.30
2009,05,29,15,45,28.30
2009,05,29,15,46,28.30
2009,05,29,15,47,28.30
2009,05,29,15,48,28.30
2009,05,29,15,49,28.20
2009,05,29,15,50,28.10
2009,05,29,15,51,28.00
2009,05,29,15,52,27.90
2009,05,29,15,53,27.90
2009,05,29,15,54,27.90
2009,05,29,15,55,27.90
2009,05,29,15,56,28.00
2009,05,29,15,57,28.00
2009,05,29,15,58,28.10
2009,05,29,15,59,28.00
2009,05,29,16,00,28.00
2009,05,29,16,01,28.00
2009,05,29,16,02,28.00
2009,05,29,16,03,28.10
2009,05,29,16,04,28.10
2009,05,29,16,05,28.00
2009,05,29,16,06,28.00
2009,05,29,16,07,27.90
2009,05,29,16,08,27.90
2009,05,29,16,09,27.80
2009,05,29,16,10,27.70
2009,05,29,16,11,27.50
2009,05,29,16,12,27.30
2009,05,29,16,13,27.30
2009,05,29,16,14,27.30
2009,05,29,16,15,27.30
2009,05,29,16,16,27.30
2009,05,29,16,17,27.30
2009,05,29,16,18,27.30
2009,05,29,16,19,27.30
2009,05,29,16,20,27.30
2009,05,29,16,21,27.20
2009,05,29,16,22,27.20
2009,05,29,16,23,27.20
2009,05,29,16,24,27.20
2009,05,29,16,25,27.20
2009,05,29,16,26,27.20
2009,05,29,16,27,27.20
2009,05,29,16,28,27.10
2009,05,29,16,29,27.10
2009,05,29,16,30,27.10
2009,05,29,16,31,27.10
2009,05,29,16,32,27.10
2009,05,29,16,33,27.10
2009,05,29,16,34,27.10
2009,05,29,16,35,27.10
2009,05,29,16,36,27.10
2009,05,29,16,37,27.20
2009,05,29,16,38,27.20
2009,05,29,16,39,27.20
2009,05,29,16,40,27.20
2009,05,29,16,41,27.20
2009,05,29,16,42,27.20
2009,05,29,16,43,27.20
2009,05,29,16,44,27.20
2009,05,29,16,45,27.20
2009,05,29,16,46,27.20
2009,05,29,16,47,27.20
2009,05,29,16,48,27.10
2009,05,29,16,49,27.10
2009,05,29,16,50,27.00
2009,05,29,16,51,26.90
2009,05,29,16,52,26.90
2009,05,29,16,53,26.90
2009,05,29,16,54,26.90
2009,05,29,16,55,26.90
2009,05,29,16,56,26.80
2009,05,29,16,57,26.80
2009,05,29,16,58,26.70
2009,05,29,16,59,26.60
2009,05,29,17,00,26.60
2009,05,29,17,01,26.60
2009,05,29,17,02,26.50
2009,05,29,17,03,26.50
2009,05,29,17,04,26.50
2009,05,29,17,05,26.50
2009,05,29,17,06,26.50
2009,05,29,17,07,26.50
2009,05,29,17,08,26.50
2009,05,29,17,09,26.40
2009,05,29,17,10,26.40
2009,05,29,17,11,26.40
2009,05,29,17,12,26.40
2009,05,29,17,13,26.40
2009,05,29,17,14,26.40
2009,05,29,17,15,26.40
2009,05,29,17,16,26.50
2009,05,29,17,17,26.50
2009,05,29,17,18,26.50
2009,05,29,17,19,26.50
2009,05,29,17,20,26.40
2009,05,29,17,21,26.40
2009,05,29,17,22,26.30
2009,05,29,17,23,26.30
2009,05,29,17,24,26.20
2009,05,29,17,25,26.10
2009,05,29,17,26,26.10
2009,05,29,17,27,26.00
2009,05,29,17,28,25.90
2009,05,29,17,29,25.90
2009,05,29,17,30,25.90
2009,05,29,17,31,25.90
2009,05,29,17,32,25.90
2009,05,29,17,33,25.90
2009,05,29,17,34,25.90
2009,05,29,17,35,25.90
2009,05,29,17,36,25.90
2009,05,29,17,37,25.90
2009,05,29,17,38,25.90
2009,05,29,17,39,25.90
2009,05,29,17,40,25.90
2009,05,29,17,41,25.90
2009,05,29,17,42,25.90
2009,05,29,17,43,25.90
2009,05,29,17,44,25.90
2009,05,29,17,45,26.00
2009,05,29,17,46,26.10
2009,05,29,17,47,26.10
2009,05,29,17,48,26.10